WAT1495 KLGA-KAVL

Flight info

Callsign WAT1495
Flight time 1h 32m
Altitude 38000
Route LANNA J48 CSN FANPO Q40 FEEDS SUG
Aircraft A319/M-SDE3FGHIRWY/LB1

Departure

Time 2026-05-03 23:54
Airport LaGuardia Airport (KLGA)

Arrival

Time 2026-05-04 01:26
Airport Asheville Regional Airport (KAVL)
Time Latitude Longitude Altitude Speed Heading
2026-05-03 23:34 40.77504 -73.87318 16 ft 0 kts 42°
2026-05-03 23:46 40.77494 -73.87330 15 ft 2 kts 42°
2026-05-03 23:47 40.77483 -73.87343 15 ft 2 kts 42°
2026-05-03 23:47 40.77476 -73.87351 15 ft 2 kts 43°
2026-05-03 23:47 40.77463 -73.87357 16 ft 2 kts 350°
2026-05-03 23:47 40.77451 -73.87349 16 ft 0 kts 307°
2026-05-03 23:48 40.77448 -73.87342 16 ft 1 kts 297°
2026-05-03 23:48 40.77447 -73.87338 15 ft 0 kts 300°
2026-05-03 23:49 40.77447 -73.87339 15 ft 0 kts 300°
2026-05-03 23:49 40.77453 -73.87354 15 ft 4 kts 298°
2026-05-03 23:49 40.77474 -73.87427 16 ft 10 kts 281°
2026-05-03 23:49 40.77497 -73.87512 17 ft 10 kts 306°
2026-05-03 23:50 40.77555 -73.87574 17 ft 11 kts 326°
2026-05-03 23:50 40.77596 -73.87621 17 ft 11 kts 298°
2026-05-03 23:50 40.77546 -73.87739 17 ft 13 kts 212°
2026-05-03 23:50 40.77465 -73.87805 17 ft 13 kts 213°
2026-05-03 23:51 40.77382 -73.87875 17 ft 14 kts 212°
2026-05-03 23:51 40.77295 -73.87949 17 ft 15 kts 212°
2026-05-03 23:51 40.77205 -73.88023 17 ft 15 kts 213°
2026-05-03 23:51 40.77110 -73.88102 17 ft 16 kts 212°
2026-05-03 23:52 40.77013 -73.88185 17 ft 16 kts 220°
2026-05-03 23:52 40.76936 -73.88296 18 ft 14 kts 239°
2026-05-03 23:52 40.76957 -73.88363 18 ft 10 kts
2026-05-03 23:52 40.76994 -73.88347 17 ft 0 kts 29°
2026-05-03 23:53 40.77007 -73.88337 17 ft 20 kts 31°
2026-05-03 23:53 40.77377 -73.88041 16 ft 102 kts 33°
2026-05-03 23:53 40.78183 -73.87352 25 ft 166 kts 31°
2026-05-03 23:53 40.79186 -73.86478 495 ft 180 kts 30°
2026-05-03 23:54 40.80265 -73.85520 1092 ft 197 kts 31°
2026-05-03 23:54 40.81459 -73.84570 1776 ft 209 kts 30°
2026-05-03 23:54 40.82899 -73.83921 2412 ft 230 kts 356°
2026-05-03 23:54 40.84418 -73.84574 3009 ft 244 kts 318°
2026-05-03 23:55 40.85381 -73.86407 3824 ft 254 kts 283°
2026-05-03 23:55 40.85371 -73.88715 4839 ft 261 kts 256°
2026-05-03 23:55 40.84535 -73.90799 5973 ft 268 kts 229°
2026-05-03 23:55 40.82947 -73.92068 7078 ft 280 kts 199°
2026-05-03 23:56 40.80954 -73.92346 7871 ft 300 kts 186°
2026-05-03 23:56 40.78898 -73.92806 8844 ft 300 kts 204°
2026-05-03 23:56 40.77227 -73.94264 9955 ft 290 kts 234°
2026-05-03 23:56 40.76344 -73.96511 10912 ft 280 kts 264°
2026-05-03 23:57 40.76353 -73.99031 11866 ft 279 kts 277°
2026-05-03 23:57 40.76427 -74.01616 12752 ft 286 kts 274°
2026-05-03 23:57 40.76301 -74.04219 13751 ft 290 kts 268°
2026-05-03 23:57 40.76033 -74.06830 14740 ft 292 kts 268°
2026-05-03 23:58 40.75680 -74.09415 15691 ft 294 kts 263°
2026-05-03 23:58 40.75212 -74.12033 16586 ft 296 kts 259°
2026-05-03 23:58 40.74717 -74.14700 17309 ft 303 kts 264°
2026-05-03 23:58 40.74178 -74.17442 17750 ft 318 kts 262°
2026-05-03 23:59 40.73595 -74.20319 18064 ft 336 kts 262°
2026-05-03 23:59 40.72981 -74.23344 18370 ft 352 kts 261°
2026-05-03 23:59 40.72329 -74.26516 18660 ft 368 kts 261°
2026-05-03 23:59 40.71638 -74.29834 18933 ft 384 kts 261°
2026-05-04 00:00 40.70909 -74.33303 19240 ft 396 kts 261°
2026-05-04 00:00 40.70169 -74.36797 19742 ft 402 kts 261°
2026-05-04 00:00 40.69413 -74.40351 20316 ft 406 kts 261°
2026-05-04 00:00 40.68649 -74.43938 20861 ft 410 kts 261°
2026-05-04 00:01 40.67871 -74.47593 21386 ft 414 kts 261°
2026-05-04 00:01 40.67096 -74.51234 21895 ft 418 kts 261°
2026-05-04 00:01 40.66302 -74.54954 22401 ft 422 kts 261°
2026-05-04 00:01 40.65507 -74.58680 22892 ft 426 kts 261°
2026-05-04 00:02 40.64704 -74.62434 23368 ft 430 kts 261°
2026-05-04 00:02 40.63892 -74.66221 23832 ft 433 kts 260°
2026-05-04 00:02 40.63068 -74.70059 24277 ft 437 kts 260°
2026-05-04 00:02 40.62252 -74.73859 24708 ft 441 kts 260°
2026-05-04 00:03 40.61413 -74.77749 25135 ft 444 kts 260°
2026-05-04 00:03 40.60559 -74.81705 25553 ft 448 kts 260°
2026-05-04 00:03 40.59716 -74.85603 25950 ft 451 kts 260°
2026-05-04 00:03 40.58848 -74.89612 26344 ft 454 kts 260°
2026-05-04 00:04 40.57984 -74.93591 26726 ft 457 kts 260°
2026-05-04 00:04 40.57110 -74.97572 27095 ft 461 kts 258°
2026-05-04 00:04 40.55939 -75.01524 27438 ft 471 kts 250°
2026-05-04 00:04 40.54301 -75.05338 27795 ft 480 kts 242°
2026-05-04 00:05 40.52289 -75.08843 28146 ft 487 kts 236°
2026-05-04 00:05 40.50108 -75.12296 28492 ft 490 kts 234°
2026-05-04 00:05 40.47906 -75.15717 28815 ft 493 kts 234°
2026-05-04 00:05 40.45706 -75.19141 29129 ft 495 kts 234°
2026-05-04 00:06 40.43488 -75.22611 29437 ft 497 kts 235°
2026-05-04 00:06 40.41292 -75.26063 29724 ft 500 kts 235°
2026-05-04 00:06 40.39046 -75.29600 30040 ft 501 kts 235°
2026-05-04 00:06 40.36852 -75.33058 30440 ft 500 kts 235°
2026-05-04 00:07 40.34610 -75.36589 30860 ft 498 kts 235°
2026-05-04 00:07 40.32425 -75.40028 31246 ft 497 kts 235°
2026-05-04 00:07 40.30212 -75.43509 31619 ft 497 kts 235°
2026-05-04 00:07 40.27993 -75.46995 31988 ft 496 kts 235°
2026-05-04 00:08 40.25796 -75.50443 32306 ft 495 kts 235°
2026-05-04 00:08 40.23611 -75.53880 32694 ft 492 kts 237°
2026-05-04 00:08 40.21538 -75.57439 33009 ft 490 kts 240°
2026-05-04 00:08 40.19649 -75.61076 33297 ft 489 kts 243°
2026-05-04 00:09 40.17796 -75.64780 33605 ft 488 kts 243°
2026-05-04 00:09 40.15931 -75.68526 33921 ft 488 kts 242°
2026-05-04 00:09 40.14100 -75.72190 34229 ft 488 kts 242°
2026-05-04 00:09 40.12226 -75.75921 34537 ft 487 kts 242°
2026-05-04 00:10 40.10392 -75.79559 34832 ft 487 kts 242°
2026-05-04 00:10 40.08514 -75.83276 35130 ft 486 kts 242°
2026-05-04 00:10 40.06656 -75.86947 35414 ft 486 kts 242°
2026-05-04 00:10 40.04798 -75.90612 35685 ft 485 kts 242°
2026-05-04 00:11 40.02963 -75.94230 35946 ft 485 kts 242°
2026-05-04 00:11 40.01105 -75.97889 36212 ft 484 kts 242°
2026-05-04 00:11 39.99231 -76.01576 36432 ft 484 kts 242°
2026-05-04 00:11 39.97386 -76.05203 36645 ft 484 kts 242°
2026-05-04 00:12 39.95532 -76.08840 36848 ft 484 kts 242°
2026-05-04 00:12 39.93660 -76.12511 37042 ft 484 kts 242°
2026-05-04 00:12 39.91822 -76.16110 37226 ft 485 kts 242°
2026-05-04 00:12 39.89936 -76.19797 37411 ft 485 kts 242°
2026-05-04 00:13 39.88086 -76.23408 37566 ft 485 kts 242°
2026-05-04 00:13 39.86225 -76.27035 37709 ft 485 kts 242°
2026-05-04 00:13 39.84348 -76.30693 37848 ft 485 kts 243°
2026-05-04 00:13 39.82474 -76.34341 37975 ft 486 kts 243°
2026-05-04 00:14 39.78728 -76.41621 37985 ft 486 kts 243°
2026-05-04 00:14 39.74984 -76.48880 37987 ft 486 kts 243°
2026-05-04 00:15 39.71233 -76.56138 37988 ft 486 kts 243°
2026-05-04 00:15 39.67466 -76.63409 37987 ft 487 kts 243°
2026-05-04 00:16 39.63695 -76.70675 37987 ft 487 kts 242°
2026-05-04 00:16 39.59911 -76.77947 37987 ft 488 kts 242°
2026-05-04 00:17 39.56117 -76.85222 37986 ft 488 kts 242°
2026-05-04 00:17 39.52242 -76.92448 37986 ft 491 kts 239°
2026-05-04 00:18 39.47797 -76.99148 37986 ft 498 kts 231°
2026-05-04 00:18 39.42646 -77.05164 37987 ft 503 kts 224°
2026-05-04 00:19 39.37174 -77.10870 37985 ft 503 kts 224°
2026-05-04 00:19 39.31742 -77.16533 37985 ft 503 kts 224°
2026-05-04 00:20 39.26338 -77.22184 37985 ft 504 kts 224°
2026-05-04 00:20 39.20880 -77.27890 37985 ft 504 kts 224°
2026-05-04 00:21 39.15474 -77.33530 37985 ft 504 kts 224°
2026-05-04 00:21 39.09997 -77.39235 37985 ft 505 kts 224°
2026-05-04 00:22 39.04579 -77.44866 37985 ft 505 kts 224°
2026-05-04 00:22 38.99112 -77.50536 37985 ft 505 kts 224°
2026-05-04 00:23 38.93638 -77.56202 37984 ft 505 kts 224°
2026-05-04 00:23 38.88161 -77.61860 37981 ft 506 kts 224°
2026-05-04 00:24 38.82700 -77.67492 37983 ft 506 kts 223°
2026-05-04 00:24 38.77229 -77.73122 37983 ft 507 kts 223°
2026-05-04 00:25 38.71717 -77.78782 37983 ft 507 kts 224°
2026-05-04 00:25 38.66346 -77.84506 37983 ft 503 kts 228°
2026-05-04 00:26 38.61534 -77.90913 37983 ft 496 kts 236°
2026-05-04 00:26 38.57362 -77.97821 37983 ft 493 kts 240°
2026-05-04 00:27 38.53256 -78.04818 37982 ft 493 kts 240°
2026-05-04 00:27 38.49135 -78.11767 37981 ft 493 kts 240°
2026-05-04 00:28 38.44974 -78.18737 37980 ft 493 kts 240°
2026-05-04 00:28 38.41044 -78.25764 37979 ft 487 kts 245°
2026-05-04 00:29 38.37481 -78.33064 37979 ft 486 kts 246°
2026-05-04 00:29 38.33923 -78.40389 37978 ft 486 kts 246°
2026-05-04 00:30 38.30351 -78.47710 37978 ft 486 kts 246°
2026-05-04 00:30 38.26791 -78.54978 37978 ft 486 kts 246°
2026-05-04 00:31 38.23224 -78.62239 37977 ft 486 kts 246°
2026-05-04 00:31 38.19648 -78.69506 37975 ft 486 kts 245°
2026-05-04 00:32 38.16080 -78.76737 37973 ft 486 kts 245°
2026-05-04 00:32 38.12490 -78.83996 37972 ft 486 kts 245°
2026-05-04 00:33 38.07101 -78.94867 37971 ft 486 kts 245°
2026-05-04 00:34 38.03522 -79.02065 37969 ft 485 kts 245°
2026-05-04 00:34 37.99908 -79.09319 37968 ft 485 kts 245°
2026-05-04 00:35 37.96319 -79.16508 37966 ft 485 kts 245°
2026-05-04 00:35 37.92707 -79.23727 37964 ft 485 kts 246°
2026-05-04 00:36 37.89116 -79.30888 37959 ft 485 kts 246°
2026-05-04 00:36 37.85489 -79.38084 37963 ft 485 kts 245°
2026-05-04 00:37 37.81878 -79.45211 37966 ft 485 kts 245°
2026-05-04 00:37 37.78239 -79.52383 37969 ft 484 kts 246°
2026-05-04 00:38 37.74626 -79.59493 37969 ft 484 kts 246°
2026-05-04 00:38 37.70976 -79.66663 37967 ft 484 kts 245°
2026-05-04 00:39 37.67349 -79.73770 37965 ft 485 kts 245°
2026-05-04 00:39 37.63697 -79.80910 37965 ft 484 kts 245°
2026-05-04 00:40 37.60067 -79.87994 37964 ft 484 kts 245°
2026-05-04 00:40 37.56411 -79.95112 37962 ft 484 kts 245°
2026-05-04 00:41 37.52740 -80.02245 37957 ft 484 kts 245°
2026-05-04 00:41 37.49088 -80.09325 37955 ft 484 kts 245°
2026-05-04 00:42 37.45439 -80.16386 37956 ft 484 kts 245°
2026-05-04 00:42 37.41779 -80.23456 37957 ft 484 kts 245°
2026-05-04 00:43 37.38108 -80.30529 37956 ft 483 kts 245°
2026-05-04 00:43 37.34462 -80.37542 37952 ft 483 kts 245°
2026-05-04 00:44 37.30715 -80.44531 37948 ft 487 kts 242°
2026-05-04 00:44 37.26338 -80.51100 37943 ft 495 kts 234°
2026-05-04 00:45 37.21263 -80.56996 37943 ft 503 kts 226°
2026-05-04 00:45 37.15700 -80.62385 37945 ft 505 kts 224°
2026-05-04 00:46 37.10140 -80.67711 37947 ft 505 kts 224°
2026-05-04 00:46 37.04574 -80.73063 37948 ft 505 kts 224°
2026-05-04 00:47 36.99051 -80.78377 37948 ft 505 kts 224°
2026-05-04 00:47 36.93461 -80.83749 37946 ft 505 kts 224°
2026-05-04 00:48 36.87928 -80.89059 37939 ft 504 kts 224°
2026-05-04 00:48 36.82392 -80.94355 37374 ft 498 kts 224°
2026-05-04 00:48 36.79666 -80.96963 36653 ft 500 kts 224°
2026-05-04 00:49 36.76907 -80.99603 35935 ft 500 kts 224°
2026-05-04 00:49 36.74172 -81.02213 35291 ft 500 kts 224°
2026-05-04 00:49 36.71429 -81.04829 34653 ft 498 kts 224°
2026-05-04 00:49 36.68665 -81.07461 33988 ft 497 kts 224°
2026-05-04 00:50 36.65936 -81.10060 33312 ft 497 kts 225°
2026-05-04 00:50 36.63211 -81.12652 32616 ft 496 kts 225°
2026-05-04 00:50 36.60469 -81.15258 31899 ft 495 kts 225°
2026-05-04 00:50 36.57767 -81.17824 31176 ft 494 kts 225°
2026-05-04 00:51 36.55037 -81.20414 30417 ft 493 kts 225°
2026-05-04 00:51 36.52306 -81.23002 29633 ft 492 kts 225°
2026-05-04 00:51 36.49608 -81.25556 28831 ft 491 kts 225°
2026-05-04 00:51 36.46894 -81.28124 28251 ft 488 kts 225°
2026-05-04 00:52 36.44228 -81.30646 27827 ft 489 kts 225°
2026-05-04 00:52 36.41503 -81.33220 27233 ft 488 kts 225°
2026-05-04 00:52 36.38805 -81.35765 26593 ft 487 kts 225°
2026-05-04 00:52 36.36153 -81.38265 25961 ft 486 kts 225°
2026-05-04 00:53 36.33440 -81.40820 25312 ft 485 kts 224°
2026-05-04 00:53 36.30790 -81.43314 24686 ft 485 kts 224°
2026-05-04 00:53 36.28086 -81.45858 24045 ft 485 kts 224°
2026-05-04 00:53 36.25421 -81.48361 23411 ft 484 kts 224°
2026-05-04 00:54 36.22768 -81.50851 22779 ft 484 kts 224°
2026-05-04 00:54 36.20079 -81.53373 22139 ft 483 kts 224°
2026-05-04 00:54 36.17411 -81.55869 21561 ft 477 kts 224°
2026-05-04 00:54 36.14769 -81.58338 21005 ft 472 kts 224°
2026-05-04 00:55 36.12175 -81.60761 20473 ft 468 kts 224°
2026-05-04 00:55 36.09630 -81.63135 19946 ft 456 kts 224°
2026-05-04 00:55 36.07110 -81.65485 19212 ft 449 kts 224°
2026-05-04 00:55 36.04650 -81.67780 18470 ft 443 kts 224°
2026-05-04 00:56 36.02198 -81.70068 17717 ft 438 kts 224°
2026-05-04 00:56 35.99811 -81.72293 16973 ft 433 kts 224°
2026-05-04 00:56 35.97404 -81.74535 16211 ft 428 kts 224°
2026-05-04 00:56 35.95079 -81.76699 15463 ft 423 kts 224°
2026-05-04 00:57 35.92730 -81.78883 14699 ft 419 kts 224°
2026-05-04 00:57 35.90447 -81.81005 14011 ft 412 kts 223°
2026-05-04 00:57 35.88158 -81.83129 13221 ft 408 kts 223°
2026-05-04 00:57 35.85932 -81.85193 12519 ft 401 kts 223°
2026-05-04 00:58 35.83709 -81.87254 11742 ft 395 kts 223°
2026-05-04 00:58 35.81576 -81.89224 11115 ft 379 kts 223°
2026-05-04 00:58 35.79487 -81.91156 10354 ft 378 kts 223°
2026-05-04 00:58 35.77386 -81.93101 9584 ft 372 kts 222°
2026-05-04 00:59 35.75354 -81.94978 8822 ft 361 kts 223°
2026-05-04 00:59 35.73343 -81.96834 8052 ft 362 kts 223°
2026-05-04 00:59 35.71369 -81.98666 7323 ft 355 kts 223°
2026-05-04 00:59 35.69384 -82.00494 6532 ft 355 kts 222°
2026-05-04 01:00 35.67449 -82.02284 5757 ft 350 kts 221°
2026-05-04 01:00 35.65527 -82.04068 5164 ft 342 kts 221°
2026-05-04 01:00 35.63633 -82.05808 4893 ft 331 kts 219°
2026-05-04 01:00 35.61805 -82.07483 4867 ft 320 kts 220°
2026-05-04 01:01 35.60072 -82.09053 4866 ft 298 kts 222°
2026-05-04 01:01 35.58469 -82.10523 4865 ft 277 kts 223°
2026-05-04 01:01 35.56987 -82.11887 4858 ft 259 kts 223°
2026-05-04 01:01 35.55600 -82.13175 4861 ft 241 kts 222°
2026-05-04 01:02 35.54253 -82.14399 4862 ft 240 kts 224°
2026-05-04 01:02 35.52949 -82.15610 4876 ft 235 kts 223°
2026-05-04 01:02 35.51650 -82.16812 4875 ft 232 kts 221°
2026-05-04 01:02 35.50372 -82.17970 4874 ft 230 kts 223°
2026-05-04 01:03 35.49071 -82.19160 4869 ft 235 kts 221°
2026-05-04 01:03 35.47775 -82.20359 4871 ft 233 kts 223°
2026-05-04 01:03 35.46463 -82.21571 4873 ft 233 kts 220°
2026-05-04 01:03 35.45152 -82.22757 4866 ft 236 kts 223°
2026-05-04 01:04 35.43840 -82.23961 4866 ft 233 kts 224°
2026-05-04 01:04 35.42737 -82.25384 4866 ft 229 kts 244°
2026-05-04 01:04 35.42186 -82.27201 4870 ft 226 kts 260°
2026-05-04 01:04 35.42198 -82.29074 4862 ft 218 kts 277°
2026-05-04 01:05 35.42499 -82.30257 4856 ft 212 kts 289°
2026-05-04 01:05 35.42583 -82.30472 4860 ft 211 kts 290°
2026-05-04 01:05 35.43387 -82.31928 4866 ft 199 kts 300°
2026-05-04 01:05 35.44107 -82.33301 4843 ft 191 kts 294°
2026-05-04 01:06 35.44770 -82.34700 4867 ft 184 kts 297°
2026-05-04 01:06 35.45420 -82.36015 4862 ft 186 kts 292°
2026-05-04 01:06 35.46109 -82.37387 4879 ft 186 kts 297°
2026-05-04 01:06 35.46777 -82.38738 4879 ft 186 kts 298°
2026-05-04 01:07 35.47456 -82.40076 4870 ft 184 kts 295°
2026-05-04 01:07 35.48144 -82.41388 4862 ft 183 kts 295°
2026-05-04 01:07 35.48813 -82.42727 4867 ft 185 kts 295°
2026-05-04 01:07 35.49506 -82.44079 4878 ft 183 kts 297°
2026-05-04 01:08 35.50183 -82.45387 4870 ft 179 kts 293°
2026-05-04 01:08 35.50832 -82.46626 4929 ft 168 kts 293°
2026-05-04 01:08 35.51425 -82.47812 4909 ft 157 kts 296°
2026-05-04 01:08 35.52024 -82.48969 4891 ft 161 kts 295°
2026-05-04 01:09 35.52616 -82.50148 4880 ft 158 kts 297°
2026-05-04 01:09 35.53208 -82.51301 4866 ft 165 kts 296°
2026-05-04 01:09 35.53820 -82.52496 4825 ft 160 kts 292°
2026-05-04 01:09 35.54409 -82.53624 4476 ft 161 kts 296°
2026-05-04 01:10 35.54993 -82.54801 4149 ft 159 kts 297°
2026-05-04 01:10 35.55574 -82.55943 3986 ft 159 kts 297°
2026-05-04 01:10 35.56161 -82.57086 3964 ft 156 kts 298°
2026-05-04 01:10 35.56746 -82.58211 3955 ft 157 kts 296°
2026-05-04 01:11 35.57324 -82.59372 3951 ft 161 kts 288°
2026-05-04 01:11 35.57379 -82.60690 3983 ft 160 kts 252°
2026-05-04 01:11 35.56661 -82.61696 3959 ft 168 kts 218°
2026-05-04 01:11 35.55415 -82.61851 3963 ft 187 kts 173°
2026-05-04 01:12 35.54247 -82.61068 3957 ft 195 kts 151°
2026-05-04 01:12 35.53227 -82.60071 3948 ft 179 kts 149°
2026-05-04 01:12 35.52300 -82.59111 3841 ft 174 kts 153°
2026-05-04 01:12 35.51375 -82.58194 3598 ft 172 kts 155°
2026-05-04 01:13 35.50354 -82.57421 3416 ft 171 kts 160°
2026-05-04 01:13 35.49292 -82.56795 3191 ft 166 kts 163°
2026-05-04 01:13 35.48253 -82.56263 2944 ft 156 kts 167°
2026-05-04 01:13 35.47225 -82.55810 2730 ft 159 kts 172°
2026-05-04 01:14 35.46174 -82.55383 2560 ft 159 kts 166°
2026-05-04 01:14 35.45176 -82.54873 2248 ft 146 kts 172°
2026-05-04 01:14 35.44283 -82.54489 2342 ft 133 kts 170°
2026-05-04 01:14 35.43376 -82.53998 2692 ft 152 kts 164°
2026-05-04 01:15 35.42340 -82.53542 3120 ft 168 kts 173°
2026-05-04 01:15 35.41178 -82.53091 3706 ft 188 kts 173°
2026-05-04 01:15 35.39846 -82.52578 3931 ft 201 kts 171°
2026-05-04 01:15 35.38561 -82.52042 3956 ft 190 kts 172°
2026-05-04 01:16 35.37301 -82.51619 3938 ft 182 kts 189°
2026-05-04 01:16 35.36206 -82.52078 3969 ft 164 kts 225°
2026-05-04 01:16 35.35539 -82.53184 4010 ft 162 kts 240°
2026-05-04 01:16 35.35129 -82.54474 4429 ft 161 kts 269°
2026-05-04 01:17 35.35464 -82.55723 4781 ft 161 kts 299°
2026-05-04 01:17 35.36350 -82.56643 4884 ft 176 kts 321°
2026-05-04 01:17 35.37421 -82.57375 4864 ft 177 kts 325°
2026-05-04 01:17 35.38482 -82.58101 4859 ft 174 kts 319°
2026-05-04 01:18 35.39454 -82.58946 4859 ft 170 kts 316°
2026-05-04 01:18 35.40382 -82.59838 4865 ft 167 kts 313°
2026-05-04 01:18 35.41280 -82.60693 4862 ft 163 kts 313°
2026-05-04 01:18 35.42206 -82.61549 4838 ft 170 kts 311°
2026-05-04 01:19 35.43164 -82.62411 4879 ft 168 kts 314°
2026-05-04 01:19 35.44097 -82.63281 4849 ft 169 kts 316°
2026-05-04 01:19 35.45015 -82.64158 4836 ft 166 kts 313°
2026-05-04 01:19 35.45960 -82.65039 4871 ft 171 kts 315°
2026-05-04 01:20 35.46883 -82.65909 4839 ft 166 kts 312°
2026-05-04 01:20 35.47805 -82.66773 4857 ft 167 kts 315°
2026-05-04 01:20 35.48704 -82.67631 4847 ft 165 kts 310°
2026-05-04 01:20 35.49720 -82.68411 4844 ft 182 kts 335°
2026-05-04 01:21 35.51062 -82.68323 4850 ft 207 kts 13°
2026-05-04 01:21 35.52233 -82.67242 4875 ft 217 kts 38°
2026-05-04 01:21 35.53264 -82.65908 4704 ft 213 kts 37°
2026-05-04 01:21 35.54365 -82.64662 4290 ft 217 kts 36°
2026-05-04 01:22 35.55484 -82.63460 4008 ft 214 kts 31°
2026-05-04 01:22 35.56539 -82.62238 3925 ft 201 kts 37°
2026-05-04 01:22 35.57248 -82.60787 3907 ft 199 kts 81°
2026-05-04 01:22 35.57107 -82.59212 3923 ft 183 kts 126°
2026-05-04 01:23 35.56212 -82.58212 3948 ft 172 kts 171°
2026-05-04 01:23 35.55088 -82.57988 4022 ft 153 kts 192°
2026-05-04 01:23 35.53994 -82.57962 4043 ft 157 kts 192°
2026-05-04 01:23 35.52907 -82.57912 3869 ft 162 kts 184°
2026-05-04 01:24 35.51764 -82.57677 3682 ft 165 kts 176°
2026-05-04 01:24 35.50639 -82.57305 3460 ft 165 kts 176°
2026-05-04 01:24 35.49610 -82.56874 3166 ft 158 kts 164°
2026-05-04 01:24 35.48644 -82.56230 2815 ft 153 kts 162°
2026-05-04 01:25 35.47680 -82.55723 2617 ft 151 kts 175°
2026-05-04 01:25 35.46713 -82.55441 2474 ft 139 kts 184°
2026-05-04 01:25 35.45758 -82.55150 2348 ft 141 kts 171°
2026-05-04 01:25 35.44815 -82.54728 2230 ft 139 kts 169°
2026-05-04 01:26 35.43980 -82.54359 2149 ft 110 kts 162°
2026-05-04 01:26 35.43608 -82.54198 2144 ft 18 kts 150°
2026-05-04 01:26 35.43576 -82.54105 2141 ft 6 kts 77°
2026-05-04 01:26 35.43566 -82.54050 2140 ft 9 kts 135°
2026-05-04 01:27 35.43537 -82.53994 2138 ft 5 kts 85°
2026-05-04 01:27 35.43549 -82.53969 2138 ft 2 kts 44°
2026-05-04 01:27 35.43560 -82.53943 2139 ft 2 kts 82°
2026-05-04 01:27 35.43557 -82.53916 2138 ft 2 kts 106°
2026-05-04 01:28 35.43553 -82.53902 2138 ft 0 kts 109°